Location: BGSU Observatory
(41.3799°N, 83.6397°W)
Time: 17:15:28
(UTC-04:00)

Amateur Radio Satellites - All Passes

Search period start: 02 September 2014 16:45
Search period end: 03 September 2014 16:45
Location: BGSU Observatory, 41.3799°N, 83.6397°W

Satellite Date Start Highest point End Downlink Frequencies (MHz)
Time Altitude Azimuth
Sapphire 02 Sep 16:48:41 16:53:47 45° 112° (ESE) 16:58:56 437.095 MHz 1200 baud AX-25 AFSK
PCSat 02 Sep 17:17:27 17:22:51 85° 118° (ESE) 17:28:19 145.825 MHz
Hamsat 02 Sep 17:19:28 17:20:45 11° 62° (ENE) 17:22:03 145.90 MHz
ISS 02 Sep 17:53:08 17:55:39 20° 227° (SW) 17:58:10 145.800 FM
OPAL 02 Sep 18:04:52 18:10:04 62° 104° (ESE) 18:15:12 ?
Uosat F 02 Sep 18:12:37 18:16:21 21° 266° (W) 18:20:06 435.120 FM
JAS-2 02 Sep 18:25:37 18:31:31 61° 73° (ENE) 18:36:52 435.800 - 435.900 CW/SSB, 435.910 FM
AO-7 02 Sep 18:26:28 18:33:18 28° 265° (W) 18:40:10 29.400 - 29.500 MHz
Sapphire 02 Sep 18:32:44 18:37:23 29° 311° (NW) 18:42:03 437.095 MHz 1200 baud AX-25 AFSK
RS-15 02 Sep 18:36:59 18:47:15 45° 250° (WSW) 18:57:56 29.354 - 29.394 USB, Beacon 29.352 USB
Hamsat 02 Sep 18:51:46 18:56:05 74° 258° (WSW) 19:00:28 145.90 MHz
PCSat 02 Sep 19:03:25 19:06:59 18° 318° (NW) 19:10:35 145.825 MHz
SO-67 02 Sep 19:11:34 19:14:15 22° 70° (ENE) 19:16:58 435.3500 MHz FM
OPAL 02 Sep 19:44:55 19:48:26 19° 301° (WNW) 19:51:55 ?
STRAND 1 02 Sep 19:53:56 19:58:40 37° 98° (E) 20:03:22 ?
JAS-2 02 Sep 20:13:01 20:16:56 18° 267° (W) 20:20:37 435.800 - 435.900 CW/SSB, 435.910 FM
HO-68 02 Sep 20:32:17 20:38:18 31° 61° (ENE) 20:44:19 435.675 MHz FM
SO-67 02 Sep 20:44:34 20:47:13 21° 265° (W) 20:49:54 435.3500 MHz FM
UKube-1 02 Sep 20:55:18 20:57:23 13° 62° (ENE) 20:59:29 145.840 MHz, 145.915 MHz
MaSat-1 02 Sep 21:15:52 21:15:54 10° 41° (NE) 21:15:56 437.345 MHz
STRAND 1 02 Sep 21:33:27 21:37:41 27° 294° (WNW) 21:41:54 ?
KITSAT 1 02 Sep 21:53:16 21:55:54 12° 98° (E) 21:58:33 435.175 FM
HO-68 02 Sep 22:18:41 22:25:38 54° 259° (WSW) 22:32:38 435.675 MHz FM
UKube-1 02 Sep 22:28:48 22:33:05 61° 259° (WSW) 22:37:24 145.840 MHz, 145.915 MHz
Oscar 11 02 Sep 22:31:20 22:35:41 87° 76° (ENE) 22:40:04 145.825 FM, Beacon 2401.500 USB
MaSat-1 02 Sep 22:49:25 22:53:57 71° 63° (ENE) 22:57:48 437.345 MHz
Saudisat 1A 02 Sep 22:55:49 23:00:14 84° 302° (WNW) 23:04:40 436.775 MHz
FUNcube-1 02 Sep 23:06:15 23:10:26 81° 76° (ENE) 23:14:45 145.950 - 145.970 MHz USB
KITSAT 1 02 Sep 23:41:48 23:49:48 69° 116° (ESE) 23:57:50 435.175 FM
PCSat 03 Sep 00:23:45 00:26:22 13° 38° (NE) 00:28:58 145.825 MHz
Saudisat 1A 03 Sep 00:38:19 00:40:30 13° 322° (NW) 00:42:42 436.775 MHz
Sapphire 03 Sep 01:36:28 01:41:32 38° 53° (NE) 01:46:34 437.095 MHz 1200 baud AX-25 AFSK
KITSAT 1 03 Sep 01:38:44 01:45:49 32° 317° (NW) 01:52:56 435.175 FM
PCSat 03 Sep 02:05:24 02:10:50 68° 59° (ENE) 02:16:13 145.825 MHz
Oscar 19 03 Sep 02:08:40 02:12:20 19° 92° (E) 02:15:58 437.125 CW, 437.150 USB
Oscar 10/S400 03 Sep 02:31:19 03:34:39 47° 218° (SW) 09:47:11 145.825 - 145.975 CW/USB, Beacon 145.810 USB
Oscar 16 03 Sep 02:43:14 02:48:11 42° 98° (E) 02:53:04 437.025 USB, Beacon 2401.1428
ITAMSAT 1 03 Sep 02:48:49 02:52:33 20° 93° (E) 02:56:15 435.822 SSB
Uribyol 2 03 Sep 02:57:28 03:01:44 25° 95° (E) 03:06:00 436.500 FM
TMSAT-1 03 Sep 03:17:40 03:19:37 12° 89° (E) 03:21:34 436.925 FM
AO-27 03 Sep 03:18:00 03:22:49 38° 98° (E) 03:27:37 436.795 MHz FM
Sapphire 03 Sep 03:20:05 03:24:51 32° 250° (WSW) 03:29:35 437.095 MHz 1200 baud AX-25 AFSK
KITSAT 1 03 Sep 03:41:08 03:44:19 13° 345° (NNW) 03:47:31 435.175 FM
OPAL 03 Sep 03:43:54 03:46:46 15° 58° (ENE) 03:49:38 ?
AO-Echo 03 Sep 03:46:29 03:51:12 80° 103° (ESE) 03:55:57 ?
Oscar 19 03 Sep 03:46:56 03:51:58 52° 289° (WNW) 03:56:58 437.125 CW, 437.150 USB
SO-50 03 Sep 03:49:16 03:53:44 79° 121° (ESE) 03:58:19 436.795 FM
PCSat 03 Sep 03:50:20 03:53:38 17° 256° (WSW) 03:56:55 145.825 MHz
JAS-1B 03 Sep 03:51:05 03:57:36 66° 101° (ESE) 04:03:20 435.800 - 435.900 CW/SSB
Gurwin Techsat 1B 03 Sep 04:05:43 04:10:52 48° 99° (E) 04:15:58 435.225 FM
Oscar 16 03 Sep 04:23:07 04:27:16 25° 295° (WNW) 04:31:25 437.025 USB, Beacon 2401.1428
ITAMSAT 1 03 Sep 04:27:18 04:32:19 51° 289° (WNW) 04:37:19 435.822 SSB
AO-7 03 Sep 04:34:49 04:40:29 20° 91° (E) 04:46:06 29.400 - 29.500 MHz
Uribyol 2 03 Sep 04:36:29 04:41:18 40° 291° (WNW) 04:46:07 436.500 FM
Uosat F 03 Sep 04:41:59 04:44:21 13° 90° (E) 04:46:43 435.120 FM
TMSAT-1 03 Sep 04:54:50 05:00:10 82° 285° (WNW) 05:05:27 436.925 FM
AO-27 03 Sep 04:57:51 05:02:10 27° 294° (WNW) 05:06:28 436.795 MHz FM
OPAL 03 Sep 05:19:55 05:24:59 75° 255° (WSW) 05:30:10 ?
AO-Echo 03 Sep 05:27:43 05:29:20 12° 300° (WNW) 05:30:57 ?
UOSAT-12 03 Sep 05:28:56 05:33:29 65° 120° (ESE) 05:38:09 437.025 FM, 437.400 FM
SO-50 03 Sep 05:32:03 05:34:53 16° 321° (NW) 05:37:46 436.795 FM
KITSAT 1 03 Sep 05:40:34 05:44:10 13° 17° (NNE) 05:47:44 435.175 FM
JAS-1B 03 Sep 05:42:58 05:47:28 20° 304° (NW) 05:51:37 435.800 - 435.900 CW/SSB
Saudisat 1A 03 Sep 05:44:42 05:46:38 13° 37° (NE) 05:48:35 436.775 MHz
Gurwin Techsat 1B 03 Sep 05:46:27 05:50:29 23° 296° (WNW) 05:54:31 435.225 FM
Uosat F 03 Sep 06:18:38 06:23:38 70° 287° (WNW) 06:28:36 435.120 FM
AO-7 03 Sep 06:25:50 06:34:09 84° 290° (WNW) 06:42:26 29.400 - 29.500 MHz
TMSAT-1 03 Sep 06:37:36 06:39:13 11° 303° (WNW) 06:40:50 436.925 FM
Hamsat 03 Sep 06:38:22 06:41:34 20° 93° (E) 06:44:44 145.90 MHz
RS-15 03 Sep 06:49:41 06:58:53 32° 105° (ESE) 07:07:55 29.354 - 29.394 USB, Beacon 29.352 USB
STRAND 1 03 Sep 07:09:53 07:14:50 55° 72° (ENE) 07:19:48 ?
UOSAT-12 03 Sep 07:10:43 07:14:05 19° 319° (NW) 07:17:30 437.025 FM, 437.400 FM
JAS-2 03 Sep 07:18:29 07:23:41 51° 100° (E) 07:29:21 435.800 - 435.900 CW/SSB, 435.910 FM
Saudisat 1A 03 Sep 07:22:32 07:26:58 78° 56° (NE) 07:31:22 436.775 MHz
KITSAT 1 03 Sep 07:35:08 07:42:28 36° 45° (NE) 07:49:43 435.175 FM
SO-67 03 Sep 08:07:42 08:10:36 24° 96° (E) 08:13:28 435.3500 MHz FM
Hamsat 03 Sep 08:13:40 08:17:38 36° 289° (WNW) 08:21:33 145.90 MHz
AO-7 03 Sep 08:20:13 08:25:47 20° 310° (NW) 08:31:21 29.400 - 29.500 MHz
STRAND 1 03 Sep 08:51:00 08:54:21 18° 268° (W) 08:57:44 ?
RS-15 03 Sep 08:59:15 09:10:17 72° 306° (NW) 09:21:14 29.354 - 29.394 USB, Beacon 29.352 USB
ISS 03 Sep 08:59:48 09:01:41 14° 131° (SE) 09:03:35 145.800 FM
JAS-2 03 Sep 09:04:37 09:08:31 21° 296° (WNW) 09:12:39 435.800 - 435.900 CW/SSB, 435.910 FM
Saudisat 1A 03 Sep 09:04:48 09:05:54 11° 253° (WSW) 09:07:00 436.775 MHz
KITSAT 1 03 Sep 09:30:22 09:38:16 60° 246° (WSW) 09:46:08 435.175 FM
SO-67 03 Sep 09:41:03 09:43:29 18° 291° (WNW) 09:45:54 435.3500 MHz FM
HO-68 03 Sep 09:46:33 09:52:40 30° 95° (E) 09:58:45 435.675 MHz FM
UKube-1 03 Sep 10:17:37 10:21:00 22° 95° (E) 10:24:23 145.840 MHz, 145.915 MHz
Oscar 11 03 Sep 10:20:13 10:22:56 16° 92° (E) 10:25:38 145.825 FM, Beacon 2401.500 USB
ISS 03 Sep 10:34:45 10:38:03 66° 327° (NNW) 10:41:22 145.800 FM
SO-50 03 Sep 10:41:48 10:44:07 13° 36° (NE) 10:46:28 436.795 FM
FUNcube-1 03 Sep 10:56:14 10:59:12 17° 92° (E) 11:02:11 145.950 - 145.970 MHz USB
RS-15 03 Sep 11:16:09 11:24:59 27° 335° (NNW) 11:33:53 29.354 - 29.394 USB, Beacon 29.352 USB
HO-68 03 Sep 11:33:43 11:40:38 53° 293° (WNW) 11:47:32 435.675 MHz FM
UKube-1 03 Sep 11:53:21 11:57:15 33° 291° (WNW) 12:01:08 145.840 MHz, 145.915 MHz
Oscar 11 03 Sep 11:55:10 11:59:21 45° 288° (WNW) 12:03:29 145.825 FM, Beacon 2401.500 USB
ISS 03 Sep 12:12:53 12:15:16 18° 345° (NNW) 12:17:40 145.800 FM
UOSAT-12 03 Sep 12:20:38 12:22:01 11° 33° (NNE) 12:23:25 437.025 FM, 437.400 FM
SO-50 03 Sep 12:20:44 12:25:32 72° 56° (NE) 12:30:22 436.795 FM
FUNcube-1 03 Sep 12:31:25 12:35:49 48° 287° (WNW) 12:40:14 145.950 - 145.970 MHz USB
MaSat-1 03 Sep 12:36:38 12:41:00 33° 106° (ESE) 12:45:35 437.345 MHz
PANSAT 03 Sep 12:45:00 12:46:33 12° 181° (S) 12:48:06 not established
JAS-1B 03 Sep 12:47:53 12:52:36 16° 53° (NE) 12:57:01 435.800 - 435.900 CW/SSB
AO-Echo 03 Sep 13:24:08 13:26:13 13° 61° (ENE) 13:28:17 ?
Oscar 19 03 Sep 13:25:27 13:29:49 29° 66° (ENE) 13:34:13 437.125 CW, 437.150 USB
HO-68 03 Sep 13:25:37 13:26:45 10° 313° (NW) 13:27:53 435.675 MHz FM
RS-15 03 Sep 13:34:40 13:42:34 22° 11° (N) 13:50:34 29.354 - 29.394 USB, Beacon 29.352 USB
ISS 03 Sep 13:51:01 13:52:59 15° 6° (N) 13:54:57 145.800 FM
Gurwin Techsat 1B 03 Sep 13:52:04 13:53:05 11° 57° (ENE) 13:54:06 435.225 FM
UOSAT-12 03 Sep 13:58:32 14:03:13 57° 53° (NE) 14:07:49 437.025 FM, 437.400 FM
Oscar 16 03 Sep 14:00:11 14:05:15 62° 73° (ENE) 14:10:23 437.025 USB, Beacon 2401.1428
SO-50 03 Sep 14:03:04 14:05:32 14° 252° (WSW) 14:08:00 436.795 FM
ITAMSAT 1 03 Sep 14:06:46 14:11:14 31° 67° (ENE) 14:15:44 435.822 SSB
MaSat-1 03 Sep 14:13:25 14:17:58 34° 305° (NW) 14:22:39 437.345 MHz
Uribyol 2 03 Sep 14:15:21 14:20:05 39° 69° (ENE) 14:24:51 436.500 FM
JAS-1B 03 Sep 14:32:17 14:41:46 64° 70° (ENE) 14:50:08 435.800 - 435.900 CW/SSB
AO-27 03 Sep 14:36:11 14:41:14 58° 72° (ENE) 14:46:19 436.795 MHz FM
TMSAT-1 03 Sep 14:37:43 14:41:33 21° 63° (ENE) 14:45:24 436.925 FM
AO-Echo 03 Sep 14:59:23 15:04:23 79° 257° (WSW) 15:09:15 ?
Oscar 19 03 Sep 15:04:18 15:09:01 36° 263° (W) 15:13:47 437.125 CW, 437.150 USB
Gurwin Techsat 1B 03 Sep 15:26:51 15:32:08 76° 74° (ENE) 15:37:27 435.225 FM
ISS 03 Sep 15:27:26 15:30:29 32° 26° (NNE) 15:33:32 145.800 FM
AO-7 03 Sep 15:33:47 15:40:43 31° 57° (ENE) 15:47:38 29.400 - 29.500 MHz
UOSAT-12 03 Sep 15:39:51 15:42:54 17° 251° (WSW) 15:45:55 437.025 FM, 437.400 FM
Oscar 16 03 Sep 15:41:54 15:45:01 16° 269° (W) 15:48:10 437.025 USB, Beacon 2401.1428
ITAMSAT 1 03 Sep 15:46:02 15:50:39 33° 263° (W) 15:55:18 435.822 SSB
RS-15 03 Sep 15:48:14 15:58:45 46° 43° (NE) 16:09:35 29.354 - 29.394 USB, Beacon 29.352 USB
Uosat F 03 Sep 15:54:58 15:58:34 20° 63° (ENE) 16:02:11 435.120 FM
Uribyol 2 03 Sep 15:55:26 15:59:39 26° 265° (W) 16:03:55 436.500 FM
TMSAT-1 03 Sep 16:15:55 16:21:04 53° 260° (W) 16:26:15 436.925 FM
AO-27 03 Sep 16:17:49 16:21:07 17° 268° (W) 16:24:27 436.795 MHz FM
Sapphire 03 Sep 16:18:43 16:23:28 33° 110° (ESE) 16:28:15 437.095 MHz 1200 baud AX-25 AFSK
JAS-1B 03 Sep 16:24:08 16:32:29 33° 265° (W) 16:40:08 435.800 - 435.900 CW/SSB
